Weather History for PAKP - December, 2012

Change the Weather History Date:

Monday, December 17, 2012

  Actual Average Record
Temperature  
Mean Temperature -16 °F -  
Max Temperature -2 °F - - ()
Min Temperature -27 °F - - ()
Degree Days  
Heating Degree Days 80    
Moisture  
Dew Point -21 °F    
Average Humidity 64    
Maximum Humidity 76    
Minimum Humidity 58    
Precipitation  
Precipitation 0.00 in - - ()
Sea Level Pressure  
Sea Level Pressure 29.49 in    
Wind  
Wind Speed 12 mph (SSW)    
Max Wind Speed 18 mph    
Max Gust Speed 22 mph    
Visibility 10 miles    
Events      
T = Trace of Precipitation, MM = Missing Value Source: NWS Daily Summary

Daily Weather History Graph

Daily Weather History Graph

Search for Another Location

Airport or City:

Trip Planner

Search our weather history database for the weather conditions in past years. The results will help you decide how hot, cold, wet, or windy it might be!

Date:

Astronomy

Dec. 17, 2012 Rise Set
Actual Time 12:31 PM AKST 1:35 PM AKST
Civil Twilight 10:25 AM AKST 3:41 PM AKST
Nautical Twilight 8:55 AM AKST 5:11 PM AKST
Astronomical Twilight 7:43 AM AKST 6:23 PM AKST
Moon 12:29 PM AKST (12/17) 10:37 PM AKST (12/17)
Length of Visible Light 5h 15m
Length of Day
1h 04m
Waxing Crescent, 26% of the Moon is Illuminated
Dec 17
Waxing Crescent
Dec 19
First Quarter
Dec 28
Full
Jan 4
Last Quarter
Jan 11
New

Hourly Weather History & Observations

Time (AKST) Temp. Windchill Dew Point Humidity Pressure Visibility Wind Dir Wind Speed Gust Speed Precip Events Conditions
12:16 AM -23.8 °F -52.2 °F - N/A% 29.54 in 10.0 mi South 18.4 mph - N/A   Clear
12:36 AM -23.8 °F -49.8 °F - N/A% 29.55 in 10.0 mi South 15.0 mph 20.7 mph N/A   Clear
12:56 AM -23.8 °F -51.5 °F - N/A% 29.55 in 10.0 mi South 17.3 mph - N/A   Clear
1:16 AM -25.6 °F -53.0 °F - N/A% 29.56 in 10.0 mi South 16.1 mph 20.7 mph N/A   Clear
1:36 AM -25.6 °F -51.2 °F - N/A% 29.56 in 10.0 mi South 13.8 mph - N/A   Clear
1:56 AM -25.6 °F -51.2 °F - N/A% 29.57 in 10.0 mi South 13.8 mph - N/A   Clear
2:16 AM -23.8 °F -44.5 °F - N/A% 29.57 in 10.0 mi South 9.2 mph - N/A   Clear
2:36 AM -23.8 °F -50.7 °F - N/A% 29.57 in 10.0 mi South 16.1 mph - N/A   Clear
2:56 AM -23.8 °F -48.9 °F - N/A% 29.57 in 10.0 mi South 13.8 mph - N/A   Clear
3:16 AM -25.6 °F -53.0 °F - N/A% 29.59 in 10.0 mi South 16.1 mph 21.9 mph N/A   Clear
3:36 AM -25.6 °F -53.8 °F - N/A% 29.58 in 10.0 mi South 17.3 mph - N/A   Clear
3:56 AM -25.6 °F -49.2 °F - N/A% 29.58 in 5.0 mi SSW 11.5 mph - N/A   Clear
4:16 AM -25.6 °F -50.2 °F - N/A% 29.59 in 10.0 mi South 12.7 mph - N/A   Clear
4:36 AM -27.4 °F -50.3 °F - N/A% 29.58 in 9.0 mi SSW 10.4 mph - N/A   Clear
4:56 AM -25.6 °F -50.2 °F - N/A% 29.58 in 10.0 mi SSW 12.7 mph - N/A   Clear
5:16 AM -27.4 °F -45.9 °F - N/A% 29.58 in 10.0 mi South 6.9 mph - N/A   Clear
5:36 AM -25.6 °F -51.2 °F - N/A% 29.58 in 10.0 mi South 13.8 mph - N/A   Clear
5:56 AM -27.4 °F -53.5 °F - N/A% 29.58 in 10.0 mi SSW 13.8 mph - N/A   Clear
6:16 AM -25.6 °F -52.1 °F - N/A% 29.58 in 10.0 mi South 15.0 mph - N/A   Clear
6:36 AM -25.6 °F -51.2 °F - N/A% 29.58 in 10.0 mi South 13.8 mph - N/A   Clear
6:56 AM -23.8 °F -50.7 °F - N/A% 29.58 in 10.0 mi South 16.1 mph - N/A   Clear
7:16 AM -23.8 °F -48.0 °F - N/A% 29.58 in 10.0 mi South 12.7 mph - N/A   Clear
7:36 AM -23.8 °F -45.8 °F - N/A% 29.58 in 10.0 mi SSW 10.4 mph - N/A   Clear
7:56 AM -23.8 °F -48.9 °F - N/A% 29.58 in 10.0 mi South 13.8 mph - N/A   Clear
8:16 AM -23.8 °F -44.5 °F - N/A% 29.58 in 10.0 mi SSW 9.2 mph - N/A   Clear
8:36 AM -23.8 °F -46.9 °F - N/A% 29.57 in 10.0 mi South 11.5 mph - N/A   Clear
8:56 AM -23.8 °F -44.5 °F - N/A% 29.57 in 10.0 mi SSW 9.2 mph - N/A   Clear
9:16 AM -23.8 °F -45.8 °F - N/A% 29.57 in 10.0 mi South 10.4 mph - N/A   Clear
9:36 AM -23.8 °F -43.2 °F - N/A% 29.56 in 10.0 mi SSW 8.1 mph - N/A   Clear
9:56 AM -25.6 °F -45.4 °F - N/A% 29.56 in 7.0 mi SSW 8.1 mph - N/A   Clear
10:16 AM -25.6 °F -45.4 °F - N/A% 29.56 in 8.0 mi South 8.1 mph - N/A   Clear
10:36 AM -25.6 °F -46.8 °F - N/A% 29.55 in 7.0 mi South 9.2 mph - N/A   Clear
10:56 AM -25.6 °F -41.9 °F - N/A% 29.55 in 10.0 mi SSW 5.8 mph - N/A   Clear
11:16 AM -25.6 °F -43.8 °F - N/A% 29.55 in 10.0 mi South 6.9 mph - N/A   Clear
11:36 AM -22.0 °F -44.7 °F - N/A% 29.54 in 10.0 mi SSW 11.5 mph - N/A   Clear
11:56 AM -20.2 °F -45.2 °F - N/A% 29.53 in 10.0 mi South 15.0 mph - N/A   Clear
12:16 PM -18.4 °F -44.5 °F -25.6 °F 70% 29.52 in 10.0 mi South 17.3 mph - N/A   Clear
12:36 PM -20.2 °F -46.8 °F -25.6 °F 76% 29.51 in 10.0 mi South 17.3 mph - N/A   Clear
12:56 PM -20.2 °F -46.0 °F -29.2 °F 63% 29.51 in 10.0 mi SSE 16.1 mph - N/A   Clear
3:36 PM -16.6 °F -35.7 °F -25.6 °F 64% 29.46 in 10.0 mi SSE 9.2 mph - N/A   Partly Cloudy
3:56 PM -16.6 °F -38.9 °F -25.6 °F 64% 29.46 in 10.0 mi South 12.7 mph 18.4 mph N/A   Clear
4:16 PM -14.8 °F -34.6 °F -25.6 °F 58% 29.45 in 10.0 mi South 10.4 mph - N/A   Clear
4:36 PM -16.6 °F -32.9 °F -27.4 °F 58% 29.45 in 10.0 mi South 6.9 mph - N/A   Clear
4:56 PM -14.8 °F -29.1 °F -23.8 °F 64% 29.44 in 10.0 mi SSW 5.8 mph - N/A   Mostly Cloudy
5:16 PM -14.8 °F -24.8 °F -23.8 °F 64% 29.43 in 10.0 mi WSW 3.5 mph - N/A   Mostly Cloudy
5:36 PM -16.6 °F -32.9 °F -27.4 °F 58% 29.43 in 10.0 mi SW 6.9 mph - N/A   Overcast
5:56 PM -14.8 °F -24.8 °F -22.0 °F 70% 29.43 in 9.0 mi SW 3.5 mph - N/A   Overcast
6:16 PM -11.2 °F -23.0 °F -20.2 °F 64% 29.42 in 10.0 mi WSW 4.6 mph - N/A   Overcast
6:36 PM -11.2 °F -20.6 °F -22.0 °F 59% 29.41 in 10.0 mi WNW 3.5 mph - N/A   Mostly Cloudy
6:56 PM -13.0 °F -25.1 °F -23.8 °F 59% 29.41 in 10.0 mi SSW 4.6 mph - N/A   Overcast
7:16 PM -13.0 °F -30.0 °F -23.8 °F 59% 29.40 in 10.0 mi SSW 8.1 mph - N/A   Overcast
7:36 PM -11.2 °F -24.8 °F -20.2 °F 64% 29.39 in 10.0 mi SW 5.8 mph - N/A   Overcast
7:56 PM -9.4 °F -22.7 °F -18.4 °F 65% 29.38 in 10.0 mi West 5.8 mph - N/A   Mostly Cloudy
8:16 PM -11.2 °F -23.0 °F -20.2 °F 64% 29.38 in 10.0 mi SW 4.6 mph - N/A   Overcast
8:36 PM -11.2 °F -20.6 °F -20.2 °F 64% 29.37 in 10.0 mi SW 3.5 mph - N/A   Overcast
8:56 PM -9.4 °F -26.8 °F -16.6 °F 71% 29.36 in 7.0 mi South 9.2 mph - N/A   Overcast
9:16 PM -7.6 °F - -14.8 °F 71% 29.35 in 10.0 mi Calm Calm - N/A   Overcast
9:36 PM -5.8 °F -14.5 °F -14.8 °F 65% 29.35 in 10.0 mi SE 3.5 mph - N/A   Overcast
9:56 PM -5.8 °F - -14.8 °F 65% 29.35 in 10.0 mi Calm Calm - N/A   Overcast
10:16 PM -7.6 °F - -16.6 °F 65% 29.34 in 10.0 mi Calm Calm - N/A   Overcast
10:36 PM -5.8 °F - -14.8 °F 65% 29.34 in 10.0 mi Calm Calm - N/A   Overcast
10:56 PM -5.8 °F - -16.6 °F 60% 29.33 in 10.0 mi Calm Calm - N/A   Overcast
11:16 PM -5.8 °F - -16.6 °F 60% 29.32 in 10.0 mi Calm Calm - N/A   Mostly Cloudy
11:36 PM -4.0 °F -14.6 °F -11.2 °F 71% 29.32 in 10.0 mi NW 4.6 mph - N/A   Overcast
11:56 PM -2.2 °F -15.6 °F -11.2 °F 66% 29.32 in 10.0 mi West 6.9 mph - N/A   Scattered Clouds